Location: NCO
(38.4404°N, 77.1340°W)
Time: 05:36:49
(UTC-05:00)

ISS - Visible Passes

Search period start: 20 January 2018 00:00
Search period end: 30 January 2018 00:00
Orbit: 402 x 407 km, 51.6° (Epoch: 20 January)

Date Brightness Start Highest point End Pass type
(mag) Time Alt. Az. Time Alt. Az. Time Alt. Az.
22 Jan -1.2 19:20:07 10° SSW 19:20:43 14° SSW 19:20:43 14° SSW visible
23 Jan -1.9 18:28:47 10° S 18:30:52 16° SE 18:31:03 16° SE visible
24 Jan -3.2 19:11:27 10° SW 19:13:59 52° SW 19:13:59 52° SW visible
25 Jan -3.2 18:19:19 10° SSW 18:22:23 40° SE 18:24:08 21° ENE visible
25 Jan -0.5 19:56:17 10° W 19:56:49 13° WNW 19:56:49 13° WNW visible
26 Jan -2.8 19:03:22 10° WSW 19:06:26 38° NNW 19:06:52 36° NNW visible
27 Jan -3.7 18:10:45 10° SW 18:14:01 73° NW 18:16:50 13° NE visible
27 Jan -0.6 19:49:05 10° NW 19:49:30 12° NW 19:49:30 12° NW visible
28 Jan -1.8 18:55:47 10° WNW 18:58:18 20° NNW 18:59:23 17° N visible
29 Jan -2.4 18:02:45 10° W 18:05:43 31° NNW 18:08:41 10° NE visible
